Location: M?digepalle
(16.1753°N, 80.3496°E)
Time: 08:46:44
(UTC+00:00)

ALOS - Pass Details

Date: 29 October 2020
Orbit: 684 x 684 km, 97.9° (Epoch: 28 November)

Event Time Altitude Azimuth Distance (km) Brightness Sun altitude
Rises 22:18:11 0° 30° (NNE) 3,039 5.9 -33.2°
Reaches altitude 10° 22:20:45 10° 43° (NE) 2,123 5.2 -32.6°
Maximum altitude 22:24:36 26° 99° (E) 1,336 4.3 -31.6°
Drops below altitude 10° 22:28:27 10° 155° (SSE) 2,120 5.1 -30.7°
Sets 22:30:59 0° 168° (SSE) 3,034 5.8 -30.1°
